TimeEST,TemperatureF,Dew PointF,Humidity,Sea Level PressureIn,VisibilityMPH,Wind Direction,Wind SpeedMPH,Gust SpeedMPH,PrecipitationIn,Events,Conditions,WindDirDegrees,DateUTC
12:53 AM,66.0,57.9,75,30.32,10.0,ENE,10.4,-,N/A,,Overcast,70,2012-03-07 05:53:00
1:53 AM,64.0,57.9,80,30.29,10.0,ENE,10.4,-,N/A,,Overcast,60,2012-03-07 06:53:00
2:53 AM,63.0,57.9,84,30.28,10.0,ENE,8.1,-,N/A,,Overcast,60,2012-03-07 07:53:00
3:53 AM,64.0,57.9,80,30.27,10.0,ENE,12.7,-,N/A,,Overcast,60,2012-03-07 08:53:00
4:53 AM,64.9,57.9,78,30.28,10.0,ENE,11.5,-,N/A,,Overcast,60,2012-03-07 09:53:00
5:53 AM,64.9,57.9,78,30.29,10.0,ENE,12.7,-,N/A,,Clear,60,2012-03-07 10:53:00
6:53 AM,64.9,57.0,75,30.30,9.0,ENE,11.5,-,N/A,,Clear,70,2012-03-07 11:53:00
7:53 AM,66.9,57.0,70,30.31,9.0,ENE,13.8,-,N/A,,Clear,70,2012-03-07 12:53:00
8:02 AM,68.0,57.2,68,30.32,9.0,East,13.8,21.9,N/A,,Mostly Cloudy,80,2012-03-07 13:02:00
8:46 AM,71.6,57.2,60,30.31,9.0,East,18.4,25.3,N/A,,Mostly Cloudy,80,2012-03-07 13:46:00
8:53 AM,72.0,57.0,59,30.31,9.0,East,20.7,26.5,N/A,,Partly Cloudy,80,2012-03-07 13:53:00
9:53 AM,75.0,59.0,57,30.31,10.0,East,20.7,25.3,N/A,,Partly Cloudy,90,2012-03-07 14:53:00
10:53 AM,77.0,61.0,58,30.31,10.0,East,21.9,29.9,N/A,,Overcast,90,2012-03-07 15:53:00
11:53 AM,78.1,62.1,58,30.30,10.0,East,15.0,24.2,N/A,,Mostly Cloudy,90,2012-03-07 16:53:00
12:53 PM,81.0,62.1,52,30.27,10.0,East,20.7,27.6,N/A,,Scattered Clouds,80,2012-03-07 17:53:00
1:53 PM,81.0,62.1,52,30.25,10.0,East,18.4,26.5,N/A,,Scattered Clouds,90,2012-03-07 18:53:00
2:53 PM,81.0,63.0,54,30.22,10.0,East,16.1,23.0,N/A,,Scattered Clouds,80,2012-03-07 19:53:00
3:53 PM,81.0,63.0,54,30.21,10.0,East,19.6,-,N/A,,Scattered Clouds,100,2012-03-07 20:53:00
4:53 PM,79.0,63.0,58,30.22,10.0,ESE,13.8,-,N/A,,Scattered Clouds,110,2012-03-07 21:53:00
5:53 PM,75.0,64.0,69,30.23,10.0,East,11.5,-,0.00,,Scattered Clouds,90,2012-03-07 22:53:00
6:53 PM,73.0,64.0,73,30.25,10.0,East,11.5,-,N/A,,Scattered Clouds,80,2012-03-07 23:53:00
7:53 PM,72.0,64.0,76,30.25,10.0,ENE,9.2,-,N/A,,Overcast,70,2012-03-08 00:53:00
8:53 PM,71.1,64.0,78,30.27,10.0,ENE,13.8,24.2,N/A,,Overcast,70,2012-03-08 01:53:00
9:49 PM,71.6,64.4,78,30.28,10.0,ENE,11.5,-,N/A,,Overcast,70,2012-03-08 02:49:00
9:53 PM,70.0,64.0,81,30.27,10.0,ENE,10.4,-,N/A,,Overcast,70,2012-03-08 02:53:00
10:10 PM,69.8,64.4,83,30.27,10.0,ENE,12.7,-,N/A,,Overcast,70,2012-03-08 03:10:00
10:43 PM,69.8,64.4,83,30.27,9.0,ENE,12.7,-,N/A,,Overcast,70,2012-03-08 03:43:00
10:53 PM,70.0,64.0,81,30.26,9.0,ENE,12.7,-,N/A,,Overcast,60,2012-03-08 03:53:00
11:12 PM,69.8,64.4,83,30.26,9.0,ENE,13.8,-,N/A,,Scattered Clouds,70,2012-03-08 04:12:00
11:53 PM,69.1,64.0,84,30.25,9.0,East,13.8,-,N/A,,Clear,80,2012-03-08 04:53:00